This is the latest recevied weather packets stored in our database for station/object KD0ISH. If no packets are shown the sender has not sent any weather packets the latest 10 day(s).
| Time | Temp. | Humidity | Pressure | Rain* | Wind** | Luminosity | Snow |
|---|---|---|---|---|---|---|---|
| 1778014081 | 9.44° C | 86% | 1012.3 hPa | 0 mm | - | 62 W/m² | - |
| 1778013779 | 9.44° C | 85% | 1012.2 hPa | 0 mm | - | 35 W/m² | - |
| 1778013476 | 9.44° C | 85% | 1012.3 hPa | 0 mm | - | 39 W/m² | - |
| 1778013173 | 9.44° C | 84% | 1012.1 hPa | 0 mm | - | 53 W/m² | - |
| 1778012869 | 9.44° C | 83% | 1012.2 hPa | 0 mm | - | 42 W/m² | - |
| 1778012565 | 9.44° C | 83% | 1011.9 hPa | 0 mm | - | 61 W/m² | - |
| 1778012262 | 9.44° C | 83% | 1011.8 hPa | 0 mm | - | 71 W/m² | - |
| 1778011959 | 9.44° C | 83% | 1011.7 hPa | 0 mm | - | 94 W/m² | - |
| 1778011658 | 9.44° C | 83% | 1011.6 hPa | 0 mm | - | 121 W/m² | - |
| 1778011355 | 9.44° C | 83% | 1011.7 hPa | 0 mm | - | 86 W/m² | - |
| 1778011049 | 9.44° C | 84% | 1012 hPa | 0 mm | - | 105 W/m² | - |
| 1778010747 | 8.89° C | 84% | 1012 hPa | 0 mm | - | 87 W/m² | - |
| 1778010445 | 8.89° C | 84% | 1012 hPa | 0 mm | - | 92 W/m² | - |
| 1778010141 | 9.44° C | 83% | 1012.1 hPa | 1.78 mm | - | 76 W/m² | - |
| 1778009837 | 9.44° C | 82% | 1011.8 hPa | 1.78 mm | - | 69 W/m² | - |
| 1778009534 | 10° C | 78% | 1011.9 hPa | 0 mm | - | 54 W/m² | - |
| 1778009233 | 10° C | 78% | 1011.9 hPa | 0 mm | - | 53 W/m² | - |
| 1778008930 | 10° C | 78% | 1011.8 hPa | 0 mm | - | 75 W/m² | - |
| 1778008628 | 10° C | 77% | 1011.6 hPa | 0 mm | - | 85 W/m² | - |
| 1778008326 | 10° C | 75% | 1011.6 hPa | 0 mm | - | 70 W/m² | - |
| 1778008022 | 10° C | 74% | 1011.8 hPa | 0 mm | - | 88 W/m² | - |
| 1778007721 | 10.56° C | 75% | 1011.4 hPa | 0 mm | - | 85 W/m² | - |
| 1778007419 | 10.56° C | 74% | 1011.7 hPa | 0 mm | - | 100 W/m² | - |
| 1778007115 | 10.56° C | 74% | 1011.8 hPa | 0 mm | - | 80 W/m² | - |
| 1778006811 | 10.56° C | 74% | 1011.7 hPa | 0 mm | - | 73 W/m² | - |
* Rain latest hour (hover to see other rain measurements)
** Current wind speed in m/s (hover to see current wind gust speed)